This demonstration page uses our WeatherBlox Daily Observations layout. Learn more.

38.89511, -77.03637

Hourly Observations for December 3, 2016

Temp ( °F °C ) Dew Point ( °F °C ) Humidity (%) Winds ( mph kmh ) Pressure ( in mb ) Visibility ( mi km ) Precip ( " mm )
1:52 am 01:52 Mostly Cloudy 45 7.2 28 -2.2 52 52 W 10 17 30.14 1021 10 16.0934 0 0
2:52 am 02:52 Cloudy 45 7.2 29 -1.7 54 54 WNW 13 20 30.14 1021 10 16.0934 0 0
3:52 am 03:52 Mostly Cloudy 45 7.2 29 -1.7 54 54 WNW 9 15 30.14 1021 10 16.0934 0 0
4:52 am 04:52 Mostly Clear 45 7.2 29 -1.7 54 54 WNW 13 20 30.15 1021 10 16.0934 0 0
5:52 am 05:52 Clear 44 6.7 28 -2.2 53 53 W 12 19 30.17 1022 10 16.0934 0 0
6:52 am 06:52 Mostly Clear 43 6.1 28 -2.2 56 56 WNW 13 20 30.19 1022 10 16.0934 0 0
7:52 am 07:52 Partly Cloudy 43 6.1 29 -1.7 58 58 W 13 20 30.21 1023 10 16.0934 0 0
8:52 am 08:52 Partly Cloudy 45 7.2 28 -2.2 52 52 WNW 15 24 30.23 1024 10 16.0934 0 0
9:52 am 09:52 Partly Cloudy 47 8.3 29 -1.7 50 50 WNW 16 26 30.24 1024 10 16.0934 0 0
10:52 am 10:52 Partly Cloudy 49 9.4 30 -1.1 48 48 NW 12 19 30.23 1024 10 16.0934 0 0
11:52 am 11:52 Partly Cloudy 50 10 30 -1.1 46 46 NNW 15 24 30.22 1024 10 16.0934 0 0
12:52 pm 12:52 Mostly Cloudy 50 10 30 -1.1 46 46 NW 16 26 30.2 1023 10 16.0934 0 0
1:52 pm 13:52 Mostly Cloudy 50 10 29 -1.7 44 44 W 17 28 30.19 1022 10 16.0934 0 0
2:52 pm 14:52 Partly Cloudy 49 9.4 29 -1.7 46 46 NW 16 26 30.22 1023 10 16.0934 0 0
3:52 pm 15:52 Partly Cloudy 48 8.9 29 -1.7 48 48 NW 18 30 30.25 1024 10 16.0934 0 0
4:52 pm 16:52 Mostly Cloudy 46 7.8 29 -1.7 51 51 NW 18 30 30.23 1024 10 16.0934 0 0
5:52 pm 17:52 Mostly Cloudy 45 7.2 28 -2.2 52 52 NW 16 26 30.25 1024 10 16.0934 0 0
6:52 pm 18:52 Mostly Cloudy 44 6.7 29 -1.7 55 55 WNW 12 19 30.26 1025 10 16.0934 0 0
7:52 pm 19:52 Mostly Cloudy 44 6.7 29 -1.7 55 55 NW 13 20 30.25 1025 10 16.0934 0 0
8:52 pm 20:52 Cloudy 43 6.1 29 -1.7 58 58 NW 15 24 30.26 1025 10 16.0934 0 0
9:52 pm 21:52 Mostly Cloudy 43 6.1 29 -1.7 58 58 WNW 13 20 30.27 1025 10 16.0934 0 0
10:52 pm 22:52 Mostly Cloudy 42 5.6 29 -1.7 60 60 VRB 7 11 30.29 1026 10 16.0934 0 0
11:52 pm 23:52 Mostly Cloudy 42 5.6 29 -1.7 60 60 WNW 9 15 30.3 1026 10 16.0934 0 0

Powered by AerisWeather